This demonstration page uses our WeatherBlox Daily Observations layout. Learn more.

Left ArrowRight Arrow

39.12711, -84.51439

Hourly Observations for January 24, 2022

Temp ( °F °C ) Dew Point ( °F °C ) Humidity (%) Winds ( mph kmh ) Pressure ( in mb ) Visibility ( mi km ) Precip ( " mm )
12:00 am 00:00 Mostly Cloudy 21 -6.1 11 -11.7 65 65 Calm 30.05 1018 10 16 0.00 0.00
12:20 am 00:20 Partly Cloudy 19 -7.2 12 -11.1 74 74 Calm 30.05 1018 10 16 0.00 0.00
12:53 am 00:53 Clear 16 -8.9 12 -11.1 84 84 Calm 30.01 1016 10 16 0.00 0.00
1:53 am 01:53 Clear 17 -8.3 14 -10 88 88 Calm 29.99 1016 10 16 0.00 0.00
2:53 am 02:53 Clear 17 -8.3 13 -10.6 84 84 Calm 29.98 1015 10 16 0.00 0.00
3:53 am 03:53 Clear 18 -7.8 14 -10 84 84 Calm 29.96 1015 10 16 0.00 0.00
4:53 am 04:53 Clear 18 -7.8 14 -10 84 84 Calm 29.95 1014 10 16 0.00 0.00
5:53 am 05:53 Clear 19 -7.2 14 -10 81 81 Calm 29.93 1013 10 16 0.00 0.00
6:53 am 06:53 Partly Cloudy 20 -6.7 13 -10.6 74 74 S 3 6 29.90 1013 10 16 0.00 0.00
7:53 am 07:53 Mostly Cloudy 20 -6.7 13 -10.6 74 74 S 5 7 29.86 1011 10 16 0.00 0.00
8:53 am 08:53 Cloudy 23 -5 15 -9.4 72 72 S 7 11 29.85 1011 10 16 0.00 0.00
9:53 am 09:53 Cloudy with Light Snow 25 -3.9 17 -8.3 72 72 S 12 19 29.82 1010 8 13 0.00 0.00
10:53 am 10:53 Cloudy with Light Snow 27 -2.8 21 -6.1 78 78 SSW 10 17 29.82 1010 5 8 0.00 0.00
11:53 am 11:53 Cloudy with Light Snow 31 -0.6 21 -6.1 67 67 S 13 20 29.78 1008 9 14 0.00 0.00
12:53 pm 12:53 Sunny 37 2.8 23 -5 57 57 SSW 12 19 29.73 1007 9 14 0.00 0.00
1:53 pm 13:53 Mostly Cloudy 41 5 24 -4.4 51 51 SW 14 22 29.70 1006 10 16 0.00 0.00
2:21 pm 14:21 Cloudy 40 4.4 27 -2.8 60 60 SW 14 22 29.71 1006 7 11 0.00 0.00
2:53 pm 14:53 Cloudy with Light Rain 39 3.9 32 0 76 76 SW 10 17 29.71 1006 6 10 0.00 0.00
3:53 pm 15:53 Cloudy with Light Rain 38 3.3 36 2.2 93 93 S 8 13 29.71 1006 7 11 0.03 0.76
4:53 pm 16:53 Cloudy with Light Rain 38 3.3 36 2.2 93 93 SW 12 19 29.73 1007 7 11 0.04 1.02
5:53 pm 17:53 Cloudy with Light Rain 38 3.3 36 2.2 93 93 SW 8 13 29.75 1007 9 14 0.04 1.02
6:53 pm 18:53 Cloudy 38 3.3 37 2.8 97 97 WSW 6 9 29.78 1008 10 16 0.01 0.25
7:53 pm 19:53 Cloudy 38 3.3 36 2.2 93 93 W 9 15 29.80 1009 10 16 0.00 0.00
8:53 pm 20:53 Cloudy 39 3.9 36 2.2 89 89 WSW 7 11 29.82 1010 10 16 0.00 0.00
9:53 pm 21:53 Cloudy 38 3.3 36 2.2 93 93 SW 7 11 29.84 1010 10 16 0.00 0.00
10:53 pm 22:53 Cloudy 38 3.3 36 2.2 93 93 WSW 6 9 29.85 1011 10 16 0.00 0.00
11:18 pm 23:18 Cloudy 35 1.7 32 0 89 89 NW 14 22 29.89 1012 10 16 0.00 0.00
11:53 pm 23:53 Cloudy with Mist and Fog 34 1.1 31 -0.6 89 89 WNW 9 15 29.91 1013 5 8 0.00 0.00

Powered by AerisWeather